TimeCDT,TemperatureF,Dew PointF,Humidity,Sea Level PressureIn,VisibilityMPH,Wind Direction,Wind SpeedMPH,Gust SpeedMPH,PrecipitationIn,Events,Conditions,WindDirDegrees,DateUTC
12:53 AM,66.9,51.1,57,29.93,10.0,SSE,8.1,-,N/A,,Clear,160,2013-09-15 05:53:00
1:53 AM,66.9,52.0,59,29.92,10.0,SSE,8.1,-,N/A,,Clear,160,2013-09-15 06:53:00
2:53 AM,66.9,51.1,57,29.91,10.0,SSE,8.1,-,N/A,,Clear,160,2013-09-15 07:53:00
3:53 AM,66.0,52.0,60,29.91,10.0,South,8.1,-,N/A,,Clear,190,2013-09-15 08:53:00
4:53 AM,66.0,54.0,65,29.90,10.0,South,9.2,-,N/A,,Clear,180,2013-09-15 09:53:00
5:53 AM,66.0,55.0,68,29.91,10.0,South,6.9,-,N/A,,Clear,190,2013-09-15 10:53:00
6:53 AM,66.9,55.9,68,29.91,10.0,SSW,10.4,-,N/A,,Partly Cloudy,200,2013-09-15 11:53:00
7:53 AM,69.1,57.0,65,29.92,10.0,SSW,12.7,-,N/A,,Partly Cloudy,200,2013-09-15 12:53:00
8:53 AM,69.1,57.0,65,29.93,10.0,SSW,8.1,-,N/A,,Scattered Clouds,200,2013-09-15 13:53:00
9:53 AM,73.0,57.9,59,29.96,10.0,WSW,9.2,-,N/A,,Mostly Cloudy,250,2013-09-15 14:53:00
10:53 AM,79.0,60.1,52,29.99,10.0,Variable,4.6,-,N/A,,Clear,0,2013-09-15 15:53:00
11:53 AM,80.1,60.1,50,29.99,10.0,Variable,4.6,-,N/A,,Scattered Clouds,0,2013-09-15 16:53:00
12:53 PM,84.0,61.0,46,29.97,10.0,SW,5.8,-,N/A,,Clear,230,2013-09-15 17:53:00
1:53 PM,86.0,62.1,44,29.96,10.0,Variable,5.8,-,N/A,,Partly Cloudy,0,2013-09-15 18:53:00
2:53 PM,87.1,62.1,43,29.95,10.0,NW,5.8,-,N/A,,Mostly Cloudy,310,2013-09-15 19:53:00
3:53 PM,86.0,62.1,44,29.96,10.0,Calm,Calm,-,N/A,,Mostly Cloudy,0,2013-09-15 20:53:00
4:53 PM,79.0,66.0,64,29.98,10.0,North,18.4,24.2,N/A,,Partly Cloudy,10,2013-09-15 21:53:00
5:53 PM,72.0,64.0,76,30.02,10.0,NNE,16.1,-,N/A,,Mostly Cloudy,20,2013-09-15 22:53:00
6:53 PM,71.1,62.1,73,30.05,10.0,NNE,13.8,20.7,0.00,,Partly Cloudy,20,2013-09-15 23:53:00
7:46 PM,69.8,62.6,78,30.08,10.0,NNE,10.4,-,N/A,,Mostly Cloudy,20,2013-09-16 00:46:00
7:53 PM,70.0,63.0,78,30.06,10.0,NNE,11.5,17.3,N/A,,Mostly Cloudy,30,2013-09-16 00:53:00
8:22 PM,69.8,62.6,78,30.09,10.0,NNE,13.8,21.9,N/A,,Overcast,30,2013-09-16 01:22:00
8:53 PM,69.1,62.1,78,30.08,10.0,NE,10.4,21.9,N/A,,Overcast,40,2013-09-16 01:53:00
9:53 PM,66.9,60.1,79,30.12,10.0,North,12.7,20.7,0.00,Rain,Light Rain,10,2013-09-16 02:53:00
10:22 PM,64.4,60.8,88,30.13,10.0,NNE,15.0,20.7,0.01,Rain,Light Rain,30,2013-09-16 03:22:00
10:45 PM,62.6,60.8,94,30.13,10.0,NE,12.7,-,0.02,Rain,Light Rain,50,2013-09-16 03:45:00
10:53 PM,63.0,61.0,93,30.13,7.0,NE,11.5,-,0.03,Rain,Rain,40,2013-09-16 03:53:00
11:04 PM,62.6,60.8,94,30.14,4.0,NNE,10.4,-,0.04,Rain,Rain,30,2013-09-16 04:04:00
11:21 PM,62.6,60.8,94,30.16,4.0,North,10.4,-,0.12,Rain,Rain,10,2013-09-16 04:21:00
11:53 PM,63.0,60.1,90,30.13,3.0,NE,12.7,-,0.27,Rain,Heavy Rain,40,2013-09-16 04:53:00